Welcome to Northern Hawkes Bay. New Zealand.
PWS Header
      nz Flag



Hit Counter


W3C Valid W3C Valid logo


    Wairoa

Select any of the Stations below to visit their websites.










Historic Data from Weather Underground
Select the location of interest below. Wairoa is the default. Please have patience, this Data is slow to load in.
Northern Hawkes Bay Historical Data
Daily Summary for April 21, 2017 Units:  Metric    English   Both
« Previous Day
Next Day »
Daily Weekly Monthly Yearly Custom
  High: Low: Average:
Temperature: 22.1 °C 7.9 °C 12.2 °C
Dew Point: 9.1 °C 5.8 °C 7.6 °C
Humidity: 99% 37% 76%
Wind Speed: 13.4km/h 0.0km/h 3.4km/h
Wind Gust: 23.3km/h - -
Wind- - WNW
Pressure: 1029.7 hPa 1025.3 hPa -
Precipitation: 0.0 mm    
Historical Graphs
 
 
Tabular Data for April 21, 2017
Time Temperature Dew Point Pressure Wind Wind Speed Wind Gust Humidity Rainfall Rate (Hourly) solar
00:01 10.6 °C 6.7 °C 1025.6 hPa NW 5.0 km/h 12.2 km/h 77% 0.0 mm 0 W/m2
00:06 10.5 °C 6.7 °C 1025.6 hPa NW 6.1 km/h 12.2 km/h 77% 0.0 mm 0 W/m2
00:11 10.5 °C 6.7 °C 1025.6 hPa NW 3.5 km/h 11.1 km/h 77% 0.0 mm 0 W/m2
00:16 10.5 °C 6.8 °C 1025.6 hPa NW 5.0 km/h 9.7 km/h 78% 0.0 mm 0 W/m2
00:21 10.4 °C 6.7 °C 1025.6 hPa NW 6.1 km/h 9.7 km/h 78% 0.0 mm 0 W/m2
00:26 10.4 °C 6.7 °C 1026.0 hPa NW 5.0 km/h 11.1 km/h 78% 0.0 mm 0 W/m2
00:31 10.3 °C 6.6 °C 1026.0 hPa NW 8.7 km/h 11.1 km/h 78% 0.0 mm 0 W/m2
00:36 10.3 °C 6.6 °C 1026.0 hPa NNW 6.1 km/h 11.1 km/h 78% 0.0 mm 0 W/m2
00:42 10.3 °C 6.6 °C 1025.6 hPa NW 7.2 km/h 11.1 km/h 78% 0.0 mm 0 W/m2
00:48 10.3 °C 6.4 °C 1025.6 hPa NW 2.6 km/h 11.1 km/h 77% 0.0 mm 0 W/m2
00:53 10.3 °C 6.4 °C 1025.6 hPa NW 3.5 km/h 8.7 km/h 77% 0.0 mm 0 W/m2
00:58 10.2 °C 6.3 °C 1025.6 hPa NNW 6.1 km/h 8.7 km/h 77% 0.0 mm 0 W/m2
01:03 10.1 °C 6.4 °C 1025.6 hPa NNW 3.5 km/h 7.2 km/h 78% 0.0 mm 0 W/m2
01:08 9.8 °C 6.5 °C 1026.0 hPa NNW 2.6 km/h 7.2 km/h 80% 0.0 mm 0 W/m2
01:13 9.6 °C 6.5 °C 1026.0 hPa NW 3.5 km/h 7.2 km/h 81% 0.0 mm 0 W/m2
01:23 9.4 °C 6.5 °C 1025.6 hPa NNW 5.0 km/h 8.7 km/h 82% 0.0 mm 0 W/m2
01:28 9.4 °C 6.5 °C 1025.6 hPa NNW 5.0 km/h 8.7 km/h 82% 0.0 mm 0 W/m2
01:33 9.4 °C 6.5 °C 1026.0 hPa NNW 5.0 km/h 8.7 km/h 82% 0.0 mm 0 W/m2
01:38 9.5 °C 6.4 °C 1026.0 hPa NNW 3.5 km/h 11.1 km/h 81% 0.0 mm 0 W/m2
01:43 9.5 °C 6.2 °C 1026.0 hPa NNW 5.0 km/h 11.1 km/h 80% 0.0 mm 0 W/m2
01:48 9.5 °C 6.2 °C 1025.6 hPa Calm   11.1 km/h 80% 0.0 mm 0 W/m2
01:53 9.3 °C 6.1 °C 1026.0 hPa Calm   7.2 km/h 80% 0.0 mm 0 W/m2
01:58 9.1 °C 5.8 °C 1025.6 hPa Calm     80% 0.0 mm 0 W/m2
02:03 9.0 °C 5.9 °C 1026.0 hPa Calm   3.5 km/h 81% 0.0 mm 0 W/m2
02:08 8.9 °C 6.2 °C 1026.0 hPa Calm   6.1 km/h 83% 0.0 mm 0 W/m2
02:13 8.7 °C 6.2 °C 1026.0 hPa Calm   6.1 km/h 84% 0.0 mm 0 W/m2
02:18 8.6 °C 6.1 °C 1025.6 hPa Calm   3.5 km/h 84% 0.0 mm 0 W/m2
02:23 8.6 °C 6.2 °C 1026.0 hPa North 3.5 km/h 6.1 km/h 85% 0.0 mm 0 W/m2
02:28 8.7 °C 6.5 °C 1026.0 hPa NNW 1.1 km/h 6.1 km/h 86% 0.0 mm 0 W/m2
02:33 8.8 °C 6.6 °C 1025.6 hPa NNW 2.6 km/h 6.1 km/h 86% 0.0 mm 0 W/m2
02:38 8.9 °C 6.7 °C 1025.6 hPa NW 2.6 km/h 9.7 km/h 86% 0.0 mm 0 W/m2
02:43 9.0 °C 6.6 °C 1025.6 hPa NW 6.1 km/h 9.7 km/h 85% 0.0 mm 0 W/m2
02:48 9.0 °C 6.4 °C 1025.6 hPa NW 2.6 km/h 7.2 km/h 84% 0.0 mm 0 W/m2
02:53 9.1 °C 6.6 °C 1025.6 hPa NNW 2.6 km/h 8.7 km/h 84% 0.0 mm 0 W/m2
02:58 9.1 °C 6.6 °C 1025.3 hPa NNW 3.5 km/h 8.7 km/h 84% 0.0 mm 0 W/m2
03:03 9.0 °C 6.4 °C 1025.3 hPa NW 3.5 km/h 8.7 km/h 84% 0.0 mm 0 W/m2
03:08 9.1 °C 6.6 °C 1025.6 hPa NW 2.6 km/h 7.2 km/h 84% 0.0 mm 0 W/m2
03:13 9.1 °C 6.6 °C 1025.6 hPa Calm   7.2 km/h 84% 0.0 mm 0 W/m2
03:18 9.1 °C 6.6 °C 1025.6 hPa Calm   6.1 km/h 84% 0.0 mm 0 W/m2
03:23 9.1 °C 6.6 °C 1025.6 hPa Calm   6.1 km/h 84% 0.0 mm 0 W/m2
03:28 9.2 °C 6.7 °C 1025.6 hPa Calm     84% 0.0 mm 0 W/m2
03:33 9.3 °C 6.7 °C 1025.6 hPa NNW 2.6 km/h 5.0 km/h 84% 0.0 mm 0 W/m2
03:38 9.4 °C 6.8 °C 1025.6 hPa NW 5.0 km/h 6.1 km/h 84% 0.0 mm 0 W/m2
03:43 9.7 °C 7.1 °C 1025.6 hPa NW 1.1 km/h 7.2 km/h 84% 0.0 mm 0 W/m2
03:48 9.7 °C 7.1 °C 1025.6 hPa NW 3.5 km/h 7.2 km/h 84% 0.0 mm 0 W/m2
03:53 9.7 °C 7.1 °C 1025.6 hPa Calm   7.2 km/h 84% 0.0 mm 0 W/m2
03:58 9.9 °C 7.3 °C 1025.6 hPa NNW 2.6 km/h 8.7 km/h 84% 0.0 mm 0 W/m2
04:03 9.9 °C 7.3 °C 1025.6 hPa Calm   8.7 km/h 84% 0.0 mm 0 W/m2
04:08 9.6 °C 7.1 °C 1026.0 hPa North 3.5 km/h 7.2 km/h 84% 0.0 mm 0 W/m2
04:13 9.5 °C 6.9 °C 1026.0 hPa North 1.1 km/h 7.2 km/h 84% 0.0 mm 0 W/m2
04:18 9.5 °C 6.9 °C 1026.0 hPa NNW 6.1 km/h 8.7 km/h 84% 0.0 mm 0 W/m2
04:23 9.6 °C 7.2 °C 1026.0 hPa Calm   8.7 km/h 85% 0.0 mm 0 W/m2
04:28 9.6 °C 7.2 °C 1026.0 hPa North 3.5 km/h 8.7 km/h 85% 0.0 mm 0 W/m2
04:33 9.7 °C 7.3 °C 1026.0 hPa North 2.6 km/h 9.7 km/h 85% 0.0 mm 0 W/m2
04:38 9.7 °C 7.3 °C 1026.3 hPa NNW 6.1 km/h 9.7 km/h 85% 0.0 mm 0 W/m2
04:43 9.7 °C 7.3 °C 1026.3 hPa NNW 7.2 km/h 8.7 km/h 85% 0.0 mm 0 W/m2
04:48 9.7 °C 7.3 °C 1026.3 hPa NNW 3.5 km/h 11.1 km/h 85% 0.0 mm 0 W/m2
04:53 9.7 °C 7.3 °C 1026.3 hPa NW 2.6 km/h 11.1 km/h 85% 0.0 mm 0 W/m2
04:58 9.7 °C 7.3 °C 1026.0 hPa NW 5.0 km/h 8.7 km/h 85% 0.0 mm 0 W/m2
05:03 9.8 °C 7.4 °C 1026.3 hPa NNW 5.0 km/h 7.2 km/h 85% 0.0 mm 0 W/m2
05:08 9.9 °C 7.5 °C 1026.3 hPa NNW 5.0 km/h 8.7 km/h 85% 0.0 mm 0 W/m2
05:13 10.0 °C 7.4 °C 1026.3 hPa NNW 2.6 km/h 8.7 km/h 84% 0.0 mm 0 W/m2
05:30 10.0 °C 7.4 °C 1026.3 hPa NW 5.0 km/h 7.2 km/h 84% 0.0 mm 0 W/m2
05:35 10.0 °C 7.4 °C 1026.3 hPa NW 2.6 km/h 7.2 km/h 84% 0.0 mm 0 W/m2
05:40 10.0 °C 7.2 °C 1026.6 hPa Calm   8.7 km/h 83% 0.0 mm 0 W/m2
05:45 10.0 °C 7.2 °C 1026.6 hPa Calm   8.7 km/h 83% 0.0 mm 0 W/m2
05:50 9.9 °C 7.3 °C 1026.6 hPa NNW 3.5 km/h 6.1 km/h 84% 0.0 mm 0 W/m2
06:07 10.0 °C 7.4 °C 1026.6 hPa NNW 6.1 km/h 9.7 km/h 84% 0.0 mm 0 W/m2
06:12 10.0 °C 7.4 °C 1026.6 hPa NNW 6.1 km/h 12.2 km/h 84% 0.0 mm 0 W/m2
06:17 10.0 °C 7.4 °C 1026.6 hPa NNW 5.0 km/h 12.2 km/h 84% 0.0 mm 0 W/m2
06:22 10.0 °C 7.2 °C 1026.6 hPa NW 3.5 km/h 8.7 km/h 83% 0.0 mm 0 W/m2
06:27 10.0 °C 7.2 °C 1026.6 hPa NW 5.0 km/h 7.2 km/h 83% 0.0 mm 0 W/m2
06:37 9.8 °C 7.4 °C 1027.0 hPa NNW 2.6 km/h 9.7 km/h 85% 0.0 mm 0 W/m2
06:42 9.8 °C 7.4 °C 1027.0 hPa Calm   9.7 km/h 85% 0.0 mm 0 W/m2
06:46 9.7 °C 7.3 °C 1027.0 hPa Calm   6.1 km/h 85% 0.0 mm 2 W/m2
06:52 9.7 °C 7.3 °C 1027.0 hPa WNW 6.1 km/h 8.7 km/h 85% 0.0 mm 4 W/m2
06:57 9.7 °C 7.3 °C 1027.0 hPa NW 6.1 km/h 12.2 km/h 85% 0.0 mm 6 W/m2
07:02 9.9 °C 7.5 °C 1027.0 hPa NNW 2.6 km/h 12.2 km/h 85% 0.0 mm 9 W/m2
07:06 9.9 °C 7.5 °C 1027.3 hPa NW 2.6 km/h 9.7 km/h 85% 0.0 mm 13 W/m2
07:11 10.0 °C 7.4 °C 1027.3 hPa Calm   8.7 km/h 84% 0.0 mm 14 W/m2
07:17 10.0 °C 7.4 °C 1027.3 hPa NNW 1.1 km/h 8.7 km/h 84% 0.0 mm 19 W/m2
07:22 10.0 °C 7.4 °C 1027.3 hPa NW 2.6 km/h 5.0 km/h 84% 0.0 mm 24 W/m2
07:32 10.0 °C 7.6 °C 1027.3 hPa NW 3.5 km/h 8.7 km/h 85% 0.0 mm 33 W/m2
07:37 10.1 °C 7.5 °C 1027.7 hPa NNW 3.5 km/h 8.7 km/h 84% 0.0 mm 39 W/m2
07:47 10.4 °C 7.8 °C 1027.7 hPa North 6.1 km/h 9.7 km/h 84% 0.0 mm 55 W/m2
07:52 10.4 °C 7.7 °C 1027.7 hPa North 5.0 km/h 9.7 km/h 83% 0.0 mm 49 W/m2
07:57 10.4 °C 7.7 °C 1028.0 hPa NNW 3.5 km/h 11.1 km/h 83% 0.0 mm 66 W/m2
08:01 10.5 °C 7.7 °C 1028.0 hPa North 5.0 km/h 11.1 km/h 83% 0.0 mm 74 W/m2
08:07 10.6 °C 7.8 °C 1027.7 hPa North 6.1 km/h 11.1 km/h 83% 0.0 mm 79 W/m2
08:12 10.7 °C 7.9 °C 1028.0 hPa NNW 3.5 km/h 9.7 km/h 83% 0.0 mm 84 W/m2
08:17 10.8 °C 8.1 °C 1028.0 hPa NNW 6.1 km/h 9.7 km/h 83% 0.0 mm 91 W/m2
08:22 10.9 °C 7.9 °C 1028.3 hPa North 8.7 km/h 9.7 km/h 82% 0.0 mm 97 W/m2
08:26 11.0 °C 7.9 °C 1028.3 hPa North 6.1 km/h 11.1 km/h 81% 0.0 mm 104 W/m2
08:32 11.1 °C 7.9 °C 1028.3 hPa NNW 6.1 km/h 13.4 km/h 81% 0.0 mm 111 W/m2
08:37 11.3 °C 8.0 °C 1028.3 hPa NNW 7.2 km/h 13.4 km/h 80% 0.0 mm 125 W/m2
08:42 11.5 °C 8.2 °C 1028.3 hPa NNW 5.0 km/h 13.4 km/h 80% 0.0 mm 124 W/m2
08:47 11.6 °C 8.3 °C 1028.3 hPa NNW 5.0 km/h 11.1 km/h 80% 0.0 mm 120 W/m2
08:52 11.9 °C 8.4 °C 1028.3 hPa NNW 1.1 km/h 11.1 km/h 79% 0.0 mm 122 W/m2
08:56 11.9 °C 8.2 °C 1028.3 hPa NNW 6.1 km/h 9.7 km/h 78% 0.0 mm 126 W/m2
09:02 12.0 °C 7.9 °C 1028.3 hPa NNW 2.6 km/h 9.7 km/h 76% 0.0 mm 125 W/m2
09:07 12.1 °C 8.0 °C 1028.3 hPa NW 7.2 km/h 9.7 km/h 76% 0.0 mm 126 W/m2
09:12 12.1 °C 7.8 °C 1028.7 hPa NW 7.2 km/h 11.1 km/h 75% 0.0 mm 128 W/m2
09:16 12.3 °C 8.0 °C 1028.3 hPa NNW 6.1 km/h 12.2 km/h 75% 0.0 mm 130 W/m2
09:22 12.4 °C 8.1 °C 1028.7 hPa NNW 3.5 km/h 12.2 km/h 75% 0.0 mm 135 W/m2
09:36 12.9 °C 8.4 °C 1028.7 hPa NNW 3.5 km/h 8.7 km/h 74% 0.0 mm 164 W/m2
09:41 13.0 °C 8.5 °C 1028.7 hPa North 2.6 km/h 8.7 km/h 74% 0.0 mm 176 W/m2
09:46 13.1 °C 7.9 °C 1028.7 hPa NNW 5.0 km/h 11.1 km/h 71% 0.0 mm 179 W/m2
09:52 13.3 °C 8.2 °C 1028.7 hPa Calm   11.1 km/h 71% 0.0 mm 181 W/m2
10:02 13.6 °C 8.2 °C 1028.7 hPa NNW 5.0 km/h 9.7 km/h 70% 0.0 mm 188 W/m2
10:06 13.6 °C 8.2 °C 1028.7 hPa NNW 5.0 km/h 12.2 km/h 70% 0.0 mm 201 W/m2
10:11 13.7 °C 8.3 °C 1028.7 hPa NNW 5.0 km/h 12.2 km/h 70% 0.0 mm 213 W/m2
10:16 14.0 °C 8.4 °C 1028.7 hPa NNW 5.0 km/h 11.1 km/h 69% 0.0 mm 221 W/m2
10:22 14.5 °C 9.1 °C 1028.7 hPa NNW 7.2 km/h 11.1 km/h 70% 0.0 mm 219 W/m2
10:26 14.3 °C 8.5 °C 1028.7 hPa NW 6.1 km/h 11.1 km/h 68% 0.0 mm 232 W/m2
10:31 14.4 °C 8.8 °C 1028.7 hPa NNW 5.0 km/h 11.1 km/h 69% 0.0 mm 230 W/m2
10:37 14.7 °C 8.7 °C 1028.7 hPa NNW 2.6 km/h 9.7 km/h 67% 0.0 mm 231 W/m2
10:41 15.0 °C 8.5 °C 1028.7 hPa NW 3.5 km/h 8.7 km/h 65% 0.0 mm 234 W/m2
10:47 15.3 °C 8.8 °C 1028.7 hPa Calm   7.2 km/h 65% 0.0 mm 235 W/m2
10:52 15.6 °C 8.3 °C 1028.7 hPa Calm   8.7 km/h 62% 0.0 mm 249 W/m2
10:56 16.6 °C 8.8 °C 1028.7 hPa WNW 3.5 km/h 8.7 km/h 60% 0.0 mm 545 W/m2
11:01 17.2 °C 8.6 °C 1029.0 hPa West 2.6 km/h 5.0 km/h 57% 0.0 mm 315 W/m2
11:06 17.0 °C 8.2 °C 1029.0 hPa Calm   7.2 km/h 56% 0.0 mm 403 W/m2
11:11 17.1 °C 7.4 °C 1029.0 hPa WNW 6.1 km/h 8.7 km/h 53% 0.0 mm 292 W/m2
11:16 16.8 °C 7.7 °C 1029.0 hPa WNW 6.1 km/h 8.7 km/h 55% 0.0 mm 254 W/m2
11:21 16.5 °C 7.2 °C 1029.0 hPa SSW 6.1 km/h 9.7 km/h 54% 0.0 mm 281 W/m2
11:27 16.2 °C 7.2 °C 1029.0 hPa SSW 7.2 km/h 12.2 km/h 55% 0.0 mm 324 W/m2
11:32 16.4 °C 7.1 °C 1028.7 hPa SW 3.5 km/h 12.2 km/h 54% 0.0 mm 338 W/m2
11:36 16.7 °C 7.1 °C 1028.7 hPa SW 7.2 km/h 13.4 km/h 53% 0.0 mm 387 W/m2
11:41 16.3 °C 7.0 °C 1029.0 hPa WSW 6.1 km/h 13.4 km/h 54% 0.0 mm 178 W/m2
11:46 15.7 °C 6.9 °C 1028.7 hPa SW 5.0 km/h 14.8 km/h 56% 0.0 mm 114 W/m2
11:52 15.3 °C 7.1 °C 1028.7 hPa SW 5.0 km/h 15.8 km/h 58% 0.0 mm 122 W/m2
11:56 15.5 °C 7.3 °C 1028.7 hPa SW 8.7 km/h 15.8 km/h 58% 0.0 mm 422 W/m2
12:01 15.8 °C 7.3 °C 1028.7 hPa SW 13.4 km/h 23.3 km/h 57% 0.0 mm 457 W/m2
12:06 16.0 °C 6.9 °C 1028.7 hPa SW 5.0 km/h 23.3 km/h 55% 0.0 mm 473 W/m2
12:11 17.1 °C 8.0 °C 1028.7 hPa SSW 7.2 km/h 23.3 km/h 55% 0.0 mm 521 W/m2
12:16 17.3 °C 7.3 °C 1028.7 hPa SW 5.0 km/h 12.2 km/h 52% 0.0 mm 524 W/m2
12:21 17.2 °C 7.3 °C 1028.7 hPa SW 8.7 km/h 15.8 km/h 52% 0.0 mm 452 W/m2
12:26 17.1 °C 7.4 °C 1028.7 hPa SW 7.2 km/h 15.8 km/h 53% 0.0 mm 539 W/m2
12:32 16.9 °C 7.6 °C 1028.7 hPa SW 11.1 km/h 19.5 km/h 54% 0.0 mm 458 W/m2
12:36 16.6 °C 7.6 °C 1028.7 hPa SW 11.1 km/h 19.5 km/h 55% 0.0 mm 346 W/m2
12:41 16.5 °C 7.4 °C 1028.3 hPa SW 12.2 km/h 17.2 km/h 55% 0.0 mm 303 W/m2
12:46 16.3 °C 7.2 °C 1028.3 hPa SW 8.7 km/h 15.8 km/h 55% 0.0 mm 332 W/m2
12:51 16.4 °C 7.3 °C 1028.3 hPa SW 6.1 km/h 15.8 km/h 55% 0.0 mm 326 W/m2
12:56 16.7 °C 7.6 °C 1028.7 hPa SSW 6.1 km/h 14.8 km/h 55% 0.0 mm 393 W/m2
13:00 16.9 °C 7.6 °C 1028.3 hPa SW 7.2 km/h 13.4 km/h 54% 0.0 mm 340 W/m2
13:05 17.1 °C 7.2 °C 1028.7 hPa SW 5.0 km/h 12.2 km/h 52% 0.0 mm 302 W/m2
13:11 17.2 °C 7.3 °C 1028.3 hPa SSW 7.2 km/h 12.2 km/h 52% 0.0 mm 336 W/m2
13:15 17.1 °C 7.4 °C 1028.3 hPa SSW 8.7 km/h 13.4 km/h 53% 0.0 mm 296 W/m2
13:20 16.7 °C 7.3 °C 1028.3 hPa South 8.7 km/h 13.4 km/h 54% 0.0 mm 252 W/m2
13:25 16.8 °C 7.4 °C 1028.3 hPa South 6.1 km/h 12.2 km/h 54% 0.0 mm 376 W/m2
13:35 16.7 °C 7.1 °C 1028.3 hPa South 7.2 km/h 13.4 km/h 53% 0.0 mm 114 W/m2
13:40 16.3 °C 7.2 °C 1028.3 hPa South 6.1 km/h 12.2 km/h 55% 0.0 mm 110 W/m2
13:46 15.8 °C 7.3 °C 1028.3 hPa South 5.0 km/h 12.2 km/h 57% 0.0 mm 119 W/m2
13:50 15.6 °C 7.4 °C 1028.3 hPa South 5.0 km/h 11.1 km/h 58% 0.0 mm 140 W/m2
13:55 15.6 °C 7.1 °C 1028.3 hPa SSW 7.2 km/h 11.1 km/h 57% 0.0 mm 149 W/m2
14:01 15.7 °C 7.2 °C 1028.0 hPa SSW 6.1 km/h 11.1 km/h 57% 0.0 mm 146 W/m2
14:05 15.7 °C 7.2 °C 1028.3 hPa SSW 2.6 km/h 9.7 km/h 57% 0.0 mm 149 W/m2
14:10 15.7 °C 6.9 °C 1028.0 hPa South 5.0 km/h 9.7 km/h 56% 0.0 mm 147 W/m2
14:15 15.7 °C 7.7 °C 1028.0 hPa SSW 2.6 km/h 9.7 km/h 59% 0.0 mm 142 W/m2
14:20 15.7 °C 7.4 °C 1028.0 hPa South 5.0 km/h 9.7 km/h 58% 0.0 mm 150 W/m2
14:25 15.7 °C 7.7 °C 1028.0 hPa South 3.5 km/h 8.7 km/h 59% 0.0 mm 164 W/m2
14:30 16.0 °C 7.5 °C 1028.0 hPa South 5.0 km/h 8.7 km/h 57% 0.0 mm 171 W/m2
14:35 17.0 °C 7.6 °C 1028.0 hPa South 5.0 km/h 7.2 km/h 54% 0.0 mm 215 W/m2
14:40 18.3 °C 7.7 °C 1028.3 hPa South 5.0 km/h 7.2 km/h 50% 0.0 mm 203 W/m2
14:45 18.6 °C 8.0 °C 1028.0 hPa South 5.0 km/h 8.7 km/h 50% 0.0 mm 187 W/m2
14:50 19.2 °C 7.3 °C 1028.3 hPa SSW 5.0 km/h 8.7 km/h 46% 0.0 mm 127 W/m2
14:56 19.0 °C 7.1 °C 1028.0 hPa SW 3.5 km/h 9.7 km/h 46% 0.0 mm 90 W/m2
15:01 20.0 °C 7.7 °C 1028.0 hPa SW 2.6 km/h 9.7 km/h 45% 0.0 mm 82 W/m2
15:06 20.4 °C 7.7 °C 1028.3 hPa SE 1.1 km/h 7.2 km/h 44% 0.0 mm 112 W/m2
15:11 20.0 °C 7.7 °C 1028.3 hPa Calm   8.7 km/h 45% 0.0 mm 182 W/m2
15:16 20.8 °C 8.1 °C 1028.0 hPa SSE 3.5 km/h 8.7 km/h 44% 0.0 mm 205 W/m2
15:26 20.8 °C 7.8 °C 1028.0 hPa SSE 5.0 km/h 7.2 km/h 43% 0.0 mm 194 W/m2
15:31 20.8 °C 7.8 °C 1028.0 hPa South 2.6 km/h 8.7 km/h 43% 0.0 mm 183 W/m2
15:36 20.3 °C 7.3 °C 1028.0 hPa Calm   8.7 km/h 43% 0.0 mm 173 W/m2
15:41 21.5 °C 7.7 °C 1028.3 hPa Calm   6.1 km/h 41% 0.0 mm 162 W/m2
15:51 22.1 °C 6.7 °C 1028.3 hPa SE 2.6 km/h 6.1 km/h 37% 0.0 mm 138 W/m2
15:56 21.4 °C 7.3 °C 1028.0 hPa SSE 1.1 km/h 6.1 km/h 40% 0.0 mm 126 W/m2
16:01 20.4 °C 7.4 °C 1028.0 hPa South 5.0 km/h 8.7 km/h 43% 0.0 mm 116 W/m2
16:06 19.8 °C 7.8 °C 1028.0 hPa South 5.0 km/h 8.7 km/h 46% 0.0 mm 103 W/m2
16:11 19.9 °C 8.3 °C 1028.3 hPa SSE 2.6 km/h 7.2 km/h 47% 0.0 mm 93 W/m2
16:16 20.1 °C 7.8 °C 1028.0 hPa Calm   6.1 km/h 45% 0.0 mm 86 W/m2
16:21 20.3 °C 8.0 °C 1028.0 hPa Calm   5.0 km/h 45% 0.0 mm 82 W/m2
16:26 20.2 °C 7.9 °C 1028.0 hPa SE 2.6 km/h 5.0 km/h 45% 0.0 mm 81 W/m2
16:31 20.0 °C 8.1 °C 1028.3 hPa Calm   5.0 km/h 46% 0.0 mm 81 W/m2
16:36 20.6 °C 8.6 °C 1028.0 hPa Calm   5.0 km/h 46% 0.0 mm 71 W/m2
16:41 20.7 °C 8.3 °C 1028.0 hPa SSE 2.6 km/h 5.0 km/h 45% 0.0 mm 57 W/m2
16:46 20.0 °C 7.7 °C 1028.0 hPa SE 1.1 km/h 5.0 km/h 45% 0.0 mm 50 W/m2
16:51 19.4 °C 8.1 °C 1028.0 hPa Calm   5.0 km/h 48% 0.0 mm 44 W/m2
16:56 19.0 °C 8.1 °C 1028.0 hPa Calm   5.0 km/h 49% 0.0 mm 40 W/m2
17:01 18.7 °C 8.7 °C 1028.0 hPa Calm     52% 0.0 mm 34 W/m2
17:06 18.3 °C 8.3 °C 1028.0 hPa Calm     52% 0.0 mm 28 W/m2
17:11 17.5 °C 7.8 °C 1028.0 hPa Calm     53% 0.0 mm 22 W/m2
17:16 17.1 °C 7.7 °C 1028.0 hPa Calm     54% 0.0 mm 15 W/m2
17:21 16.3 °C 7.5 °C 1028.0 hPa Calm     56% 0.0 mm 12 W/m2
17:26 15.4 °C 7.7 °C 1028.0 hPa Calm     60% 0.0 mm 7 W/m2
17:31 14.6 °C 7.7 °C 1028.3 hPa Calm     63% 0.0 mm 4 W/m2
17:36 14.0 °C 7.6 °C 1028.3 hPa Calm     65% 0.0 mm 2 W/m2
17:41 13.5 °C 7.5 °C 1028.3 hPa Calm     67% 0.0 mm 0 W/m2
17:46 13.2 °C 7.4 °C 1028.3 hPa Calm     68% 0.0 mm 0 W/m2
17:47 13.0 °C 7.4 °C 1028.3 hPa Calm     69% 0.0 mm 0 W/m2
17:52 12.6 °C 7.5 °C 1028.3 hPa Calm     71% 0.0 mm 0 W/m2
17:57 12.4 °C 7.5 °C 1028.7 hPa Calm     72% 0.0 mm 0 W/m2
18:07 12.0 °C 7.3 °C 1028.3 hPa Calm     73% 0.0 mm 0 W/m2
18:12 11.8 °C 7.5 °C 1028.7 hPa Calm     75% 0.0 mm 0 W/m2
18:17 11.6 °C 7.7 °C 1028.3 hPa Calm     77% 0.0 mm 0 W/m2
18:22 11.4 °C 7.9 °C 1028.7 hPa Calm     79% 0.0 mm 0 W/m2
18:27 11.1 °C 8.2 °C 1028.7 hPa Calm     82% 0.0 mm 0 W/m2
18:32 10.9 °C 8.3 °C 1028.7 hPa Calm     84% 0.0 mm 0 W/m2
18:42 10.6 °C 8.2 °C 1028.7 hPa Calm     85% 0.0 mm 0 W/m2
18:47 10.5 °C 8.3 °C 1028.7 hPa Calm     86% 0.0 mm 0 W/m2
18:52 10.4 °C 8.2 °C 1028.7 hPa Calm     86% 0.0 mm 0 W/m2
18:57 10.4 °C 8.3 °C 1028.7 hPa Calm     87% 0.0 mm 0 W/m2
19:02 10.3 °C 8.4 °C 1028.7 hPa Calm     88% 0.0 mm 0 W/m2
19:07 10.2 °C 8.4 °C 1028.7 hPa Calm     89% 0.0 mm 0 W/m2
19:12 10.1 °C 8.6 °C 1028.7 hPa Calm     90% 0.0 mm 0 W/m2
19:17 10.0 °C 8.6 °C 1028.7 hPa Calm     91% 0.0 mm 0 W/m2
19:22 10.0 °C 8.6 °C 1028.7 hPa Calm     91% 0.0 mm 0 W/m2
19:27 9.9 °C 8.8 °C 1028.7 hPa Calm     93% 0.0 mm 0 W/m2
19:32 9.8 °C 8.9 °C 1029.0 hPa Calm     94% 0.0 mm 0 W/m2
19:37 9.8 °C 8.9 °C 1028.7 hPa Calm     94% 0.0 mm 0 W/m2
19:42 9.7 °C 8.8 °C 1029.0 hPa Calm     94% 0.0 mm 0 W/m2
19:47 9.6 °C 8.8 °C 1028.7 hPa Calm     95% 0.0 mm 0 W/m2
19:52 9.4 °C 8.7 °C 1029.0 hPa Calm     95% 0.0 mm 0 W/m2
19:57 9.3 °C 8.6 °C 1029.0 hPa Calm     95% 0.0 mm 0 W/m2
20:02 9.2 °C 8.4 °C 1029.0 hPa Calm     95% 0.0 mm 0 W/m2
20:07 9.1 °C 8.3 °C 1029.0 hPa Calm     95% 0.0 mm 0 W/m2
20:12 9.1 °C 8.3 °C 1029.0 hPa NW 2.6 km/h 5.0 km/h 95% 0.0 mm 0 W/m2
20:17 9.1 °C 8.5 °C 1029.0 hPa Calm   5.0 km/h 96% 0.0 mm 0 W/m2
20:22 9.0 °C 8.4 °C 1029.0 hPa Calm   5.0 km/h 96% 0.0 mm 0 W/m2
20:27 8.9 °C 8.4 °C 1029.3 hPa Calm     97% 0.0 mm 0 W/m2
20:32 8.9 °C 8.4 °C 1029.3 hPa Calm     97% 0.0 mm 0 W/m2
20:37 8.6 °C 8.3 °C 1029.0 hPa Calm     98% 0.0 mm 0 W/m2
20:42 8.6 °C 8.3 °C 1029.3 hPa Calm     98% 0.0 mm 0 W/m2
20:47 8.6 °C 8.3 °C 1029.3 hPa Calm   1.1 km/h 98% 0.0 mm 0 W/m2
20:52 8.6 °C 8.3 °C 1029.3 hPa Calm   1.1 km/h 98% 0.0 mm 0 W/m2
20:57 8.6 °C 8.4 °C 1029.3 hPa Calm     99% 0.0 mm 0 W/m2
21:02 8.6 °C 8.4 °C 1029.0 hPa Calm     99% 0.0 mm 0 W/m2
21:07 8.6 °C 8.4 °C 1029.3 hPa North 3.5 km/h 6.1 km/h 99% 0.0 mm 0 W/m2
21:12 8.6 °C 8.4 °C 1029.3 hPa NNW 5.0 km/h 7.2 km/h 99% 0.0 mm 0 W/m2
21:17 8.6 °C 8.4 °C 1029.3 hPa NW 5.0 km/h 8.7 km/h 99% 0.0 mm 0 W/m2
21:22 8.6 °C 8.4 °C 1029.3 hPa NW 5.0 km/h 8.7 km/h 99% 0.0 mm 0 W/m2
21:27 8.6 °C 8.4 °C 1029.3 hPa NW 3.5 km/h 7.2 km/h 99% 0.0 mm 0 W/m2
21:37 8.5 °C 8.3 °C 1029.3 hPa NW 6.1 km/h 7.2 km/h 99% 0.0 mm 0 W/m2
21:42 8.5 °C 8.3 °C 1029.3 hPa NW 2.6 km/h 7.2 km/h 99% 0.0 mm 0 W/m2
21:47 8.4 °C 8.3 °C 1029.3 hPa NW 5.0 km/h 7.2 km/h 99% 0.0 mm 0 W/m2
21:52 8.4 °C 8.3 °C 1029.3 hPa NW 5.0 km/h 7.2 km/h 99% 0.0 mm 0 W/m2
21:57 8.4 °C 8.3 °C 1029.3 hPa NW 3.5 km/h 7.2 km/h 99% 0.0 mm 0 W/m2
22:02 8.4 °C 8.3 °C 1029.3 hPa NW 1.1 km/h 7.2 km/h 99% 0.0 mm 0 W/m2
22:07 8.3 °C 8.2 °C 1029.7 hPa Calm   7.2 km/h 99% 0.0 mm 0 W/m2
22:12 8.4 °C 8.3 °C 1029.3 hPa NW 2.6 km/h 7.2 km/h 99% 0.0 mm 0 W/m2
22:17 8.5 °C 8.3 °C 1029.3 hPa NNW 3.5 km/h 13.4 km/h 99% 0.0 mm 0 W/m2
22:22 8.4 °C 8.3 °C 1029.3 hPa NNW 3.5 km/h 13.4 km/h 99% 0.0 mm 0 W/m2
22:27 8.3 °C 8.2 °C 1029.3 hPa NW 6.1 km/h 8.7 km/h 99% 0.0 mm 0 W/m2
22:32 8.3 °C 8.2 °C 1029.0 hPa NW 3.5 km/h 7.2 km/h 99% 0.0 mm 0 W/m2
22:37 8.2 °C 8.1 °C 1029.0 hPa NW 3.5 km/h 8.7 km/h 99% 0.0 mm 0 W/m2
22:42 8.2 °C 8.1 °C 1029.0 hPa NNW 7.2 km/h 9.7 km/h 99% 0.0 mm 0 W/m2
22:47 8.3 °C 8.2 °C 1029.3 hPa NNW 9.7 km/h 13.4 km/h 99% 0.0 mm 0 W/m2
22:52 8.3 °C 8.2 °C 1029.0 hPa NNW 6.1 km/h 13.4 km/h 99% 0.0 mm 0 W/m2
22:57 8.2 °C 8.1 °C 1029.0 hPa NNW 5.0 km/h 13.4 km/h 99% 0.0 mm 0 W/m2
23:02 8.2 °C 8.1 °C 1028.7 hPa NNW 6.1 km/h 12.2 km/h 99% 0.0 mm 0 W/m2
23:07 8.1 °C 7.9 °C 1029.0 hPa NNW 6.1 km/h 12.2 km/h 99% 0.0 mm 0 W/m2
23:12 8.1 °C 7.9 °C 1029.0 hPa NNW 6.1 km/h 11.1 km/h 99% 0.0 mm 0 W/m2
23:17 8.1 °C 7.9 °C 1029.0 hPa NNW 6.1 km/h 11.1 km/h 99% 0.0 mm 0 W/m2
23:22 8.1 °C 7.9 °C 1028.7 hPa NNW 3.5 km/h 11.1 km/h 99% 0.0 mm 0 W/m2
23:27 8.0 °C 7.8 °C 1029.0 hPa NNW 3.5 km/h 11.1 km/h 99% 0.0 mm 0 W/m2
23:32 8.0 °C 7.8 °C 1029.0 hPa NNW 6.1 km/h 11.1 km/h 99% 0.0 mm 0 W/m2
23:37 8.0 °C 7.8 °C 1028.7 hPa North 3.5 km/h 11.1 km/h 99% 0.0 mm 0 W/m2
23:42 8.0 °C 7.8 °C 1028.7 hPa North 5.0 km/h 11.1 km/h 99% 0.0 mm 0 W/m2
23:47 8.0 °C 7.8 °C 1028.7 hPa NNW 2.6 km/h 11.1 km/h 99% 0.0 mm 0 W/m2
23:52 7.9 °C 7.4 °C 1028.7 hPa NNW 5.0 km/h 11.1 km/h 97% 0.0 mm 0 W/m2
23:57 7.9 °C 7.4 °C 1028.3 hPa NNW 2.6 km/h 8.7 km/h 97% 0.0 mm 0 W/m2
Northern Hawkes Bay. New Zealand Historic Data
Compliments of Weather Underground - 2 mb